TimeCST,TemperatureF,Dew PointF,Humidity,Sea Level PressureIn,VisibilityMPH,Wind Direction,Wind SpeedMPH,Gust SpeedMPH,PrecipitationIn,Events,Conditions,WindDirDegrees,DateUTC
12:53 AM,39.9,39.0,97,29.60,3.0,South,5.8,-,N/A,,Clear,190,2013-12-03 06:53:00
1:09 AM,39.0,37.9,96,29.58,2.5,South,5.8,-,N/A,,Clear,180,2013-12-03 07:09:00
1:39 AM,41.0,39.9,96,29.58,3.0,South,6.9,-,N/A,,Clear,190,2013-12-03 07:39:00
1:49 AM,39.2,39.2,100,29.58,2.5,South,5.8,-,N/A,,Clear,190,2013-12-03 07:49:00
1:53 AM,39.9,39.0,97,29.59,2.5,South,6.9,-,N/A,,Clear,180,2013-12-03 07:53:00
2:53 AM,39.9,39.0,97,29.60,2.5,SSW,5.8,-,N/A,,Clear,200,2013-12-03 08:53:00
3:42 AM,39.0,39.0,100,29.57,1.2,South,5.8,-,N/A,,Clear,190,2013-12-03 09:42:00
3:53 AM,39.0,39.0,100,29.58,0.8,South,8.1,-,N/A,,Clear,180,2013-12-03 09:53:00
4:08 AM,39.0,39.0,100,29.57,1.0,South,6.9,-,N/A,,Clear,180,2013-12-03 10:08:00
4:22 AM,39.0,39.0,100,29.56,0.8,SSE,8.1,-,N/A,,Mist,160,2013-12-03 10:22:00
4:29 AM,39.9,39.0,97,29.56,0.2,South,9.2,-,N/A,Fog,Fog,170,2013-12-03 10:29:00
4:53 AM,41.0,41.0,100,29.57,0.2,South,5.8,-,N/A,Fog,Fog,190,2013-12-03 10:53:00
5:53 AM,41.0,41.0,100,29.58,0.5,SSW,8.1,-,N/A,Fog,Fog,200,2013-12-03 11:53:00
6:41 AM,39.9,39.9,100,29.58,1.0,SSW,8.1,-,N/A,,Mist,200,2013-12-03 12:41:00
6:53 AM,39.9,39.9,100,29.59,1.0,SSW,8.1,-,N/A,,Overcast,200,2013-12-03 12:53:00
7:53 AM,39.9,39.9,100,29.60,0.5,South,6.9,-,N/A,Fog,Fog,180,2013-12-03 13:53:00
8:53 AM,42.1,42.1,100,29.59,0.2,South,9.2,-,N/A,Fog,Fog,180,2013-12-03 14:53:00
9:42 AM,44.1,44.1,100,29.59,1.0,SSW,10.4,-,N/A,,Overcast,200,2013-12-03 15:42:00
9:53 AM,45.0,44.1,97,29.60,1.5,SSW,10.4,-,N/A,,Overcast,200,2013-12-03 15:53:00
10:42 AM,45.0,44.1,97,29.60,1.5,SSW,10.4,-,N/A,,Mostly Cloudy,200,2013-12-03 16:42:00
10:53 AM,46.0,44.1,93,29.60,1.5,SSW,11.5,-,N/A,,Mostly Cloudy,210,2013-12-03 16:53:00
11:00 AM,46.0,44.1,93,29.60,5.0,South,10.4,-,N/A,,Mostly Cloudy,180,2013-12-03 17:00:00
11:36 AM,48.0,44.1,86,29.60,6.0,South,10.4,-,N/A,,Scattered Clouds,190,2013-12-03 17:36:00
11:53 AM,48.0,43.0,83,29.58,6.0,South,10.4,-,N/A,,Haze,180,2013-12-03 17:53:00
12:53 PM,54.0,45.0,72,29.54,10.0,South,8.1,-,N/A,,Clear,180,2013-12-03 18:53:00
1:53 PM,55.9,43.0,62,29.53,10.0,South,10.4,-,N/A,,Clear,180,2013-12-03 19:53:00
2:53 PM,55.9,44.1,64,29.54,10.0,SSW,10.4,-,N/A,,Clear,210,2013-12-03 20:53:00
3:53 PM,57.0,45.0,64,29.55,10.0,SSW,9.2,-,N/A,,Clear,200,2013-12-03 21:53:00
4:53 PM,51.1,44.1,77,29.55,9.0,South,4.6,-,N/A,,Clear,180,2013-12-03 22:53:00
5:53 PM,48.0,44.1,86,29.55,7.0,SSE,6.9,-,N/A,,Clear,150,2013-12-03 23:53:00
6:53 PM,46.9,44.1,90,29.57,6.0,Calm,Calm,-,N/A,,Clear,0,2013-12-04 00:53:00
7:53 PM,46.0,44.1,93,29.58,5.0,Calm,Calm,-,N/A,,Clear,0,2013-12-04 01:53:00
8:53 PM,45.0,43.0,93,29.58,4.0,East,3.5,-,N/A,,Clear,90,2013-12-04 02:53:00
9:51 PM,42.8,42.8,100,29.58,2.5,ENE,4.6,-,N/A,,Clear,60,2013-12-04 03:51:00
9:53 PM,43.0,42.1,97,29.59,2.5,NE,4.6,-,N/A,,Clear,50,2013-12-04 03:53:00
10:31 PM,45.0,44.1,97,29.58,3.0,NNE,5.8,-,N/A,,Clear,30,2013-12-04 04:31:00
10:50 PM,44.6,42.8,93,29.57,2.5,NE,5.8,-,N/A,,Clear,40,2013-12-04 04:50:00
10:53 PM,43.0,43.0,100,29.58,2.5,NE,5.8,-,N/A,,Clear,50,2013-12-04 04:53:00
11:43 PM,44.1,43.0,96,29.57,3.0,NE,6.9,-,N/A,,Clear,50,2013-12-04 05:43:00
11:53 PM,45.0,44.1,97,29.58,2.5,NNE,8.1,-,N/A,,Clear,30,2013-12-04 05:53:00